Timeline UpdatesTrip UpdatesNews PostsPvt PostsTravel TipsAdmin PostsConv PostsFollowed PostsChat RequestsBlog PostsPNR Posts

Disclaimer
Search
 
 
Sat Aug 23, 2014 05:04:42 ISTHomeTrainsΣChainsAtlasPNRForumGalleryNewsFAQTripsMembersLoginFeedback
No Recent News for this Train
Other Trains in the News **new
Latest...
.
Wed May 15, 2013 (12:03AM)
⇐ Return Journey: Train# 59439

59440/Ahmedabad - Mumbai Central Passenger

Oct 10 2013 (2:14AM)
Change Departure Station:
Change Arrival Station:
Post a Train Travel TipPost a Train Travel Tip **new
Post a Comment/Question/Picture/VideoPost a Comment/Question/Picture/Video
Pantry/Catering
✕ NO Pantry Car
✕ NO Catering
RSA - Rake Sharing
59439,59440,59441 and 59442 all share rakes.
Rake/Coach Composition
Loco
BL WCAM-1/BRC WAG-5A
News    PNR    Forum    Time-Table    Availability    Fare Chart    Map    Arr/Dep History    Trips    Gallery    ΣChains    X/O    Timeline    
Travel Time: 12h 22m    54 halts    Distance: 373 km    Avg Speed: 30 km/hr
Type: Passenger
Zone: WR/Western
Departs @ 23:00 (Avg 7m late)
Platform# 2
SMTWTFS
Ahmedabad Junction/ADI 
Arrives @ 11:22 +1 night (Avg 49m late)
Platform# ???
SMTWTFS
Dahanu Road/DRD 

54 halts. 72 intermediate Stations between Ahmedabad Junction and Dahanu Road

Hide intermediate Stations  Show Old Time-Table

#CodeStation NameX/OArrivesAvgDepartsAvgHaltPFDay#KmSpeedElevZoneAddress
1ADI»Ahmedabad Junction (12)»  -23:00+7210.01951mWRAhmedabad, Gujarat
1.1KKFKankaria  23:06-23:06-  11.8 1948mWRAhmedabad, Gujarat
2MANManinagar (2)X  23:10+023:12+02m213.25850mWRAhmadabad, Gujarat
3VTAVatva (4)X  23:17+2023:19+202m--18.02549mWRDist. Ahmedabad 382445, Gujarat
3.1GERGeratpur (2)X  23:32-23:32-  113.3 2544mWRAhmadabad, Gujarat
4BJDBarejadi Nandej (3)O  23:40+2923:41+291m--116.64442mWRBareja-Barejadi Rd, Gujarat
5KANJKanij (3)O  23:47+3023:48+361m--121.01239mWRBareja-Barejadi Rd, Gujarat
6NEPNenpur (2)O  00:02-00:03-1m--223.94235mWRState Highway 3, Gujarat
7MHDMahemdavad Kheda Road (4)X  00:09+2600:10+321m--228.02237mWRMahemdavad, Gujarat
8GTEGothaj (2)X  00:24+2900:26+332m--233.28232mWRState Highway 3, Gujarat
9NDNadiad Junction (4)X  00:35+2300:39+214m--245.66037mWRNadiad, Gujarat
9.1UTDUtarsanda (4)X  00:44-00:44-  251.1 6040mWRUttarsanda, Gujarat
10KBRVKanjari Boriyavi Junction (4)XO  00:50+3300:52+362m--256.61939mWRKanjari, Gujarat
11ANNDAnand Junction (6)  01:15+1901:20+185m--264.05244mWRAnand, Gujarat
12VXDVadod (3)X  01:28+2801:29+281m--270.93544mWRAnand District, Gujarat
13ADDAdas Road (4)X  01:36+2701:37+271m--274.94042mWRNational Highway 8, Gujarat
14VDAVasad Junction (3)  01:44+2601:46+332m--279.66940mWRVasad, Gujarat
14.1NDRNandesari (2)  01:50-01:50-  284.6 6942mWRNandesari, Gujarat
15RNORanoli (2)X  01:54+3301:55+341m--288.72139mWRVadodara District, Gujarat
15.1KRCAKarachiya YardX  02:00-02:00-  290.5 2139mWRVadodara, Gujarat
16BJWBajva (3)X  02:06+3402:07+341m--292.51738mWRVadodara, Gujarat
16.1BRGYVadodara D Cabin  02:31-02:31-  299.1 1736mWRVadodara, Gujarat
17BRCVadodara Junction (7)X  02:33+1702:38+175m--299.86436mWRVadodara 390005, Gujarat
17.1VSVishvamitri (4)X  02:41-02:41-  2102.8 6430mWRVadodara, Gujarat
17.2MPRMakarpura (4)X  02:46-02:46-  2108.5 6430mWRVadodara, Gujarat
17.3VRMVarnama (2)  02:51-02:51-  2114.1 6428mWRVadodara, Gujarat
18ITAItola (4)  02:55+2002:56+301m--2118.07027mWRNational Highway 8 Vadodara, Gujarat
18.1KSPRKashipura Sarar (2)X  02:59-02:59-  2121.8 7026mWRGIDC Industrial Area, Gujarat
19MYGMiyagam Karjan (2)X  03:06+5703:08+572m--2129.67029mWRKarjan, Gujarat
19.1MYGLMiyagam Karjan Junction NGX  03:08-03:08-  2129.6 700mWRKarjan, Gujarat
19.2LKDLakodara (4)  03:15-03:15-  2137.6 7026mWRNH 8, Gujarat
20PLJPalej (4)XO  03:21+1:0003:23+1:082m--2144.92329mWRPalej, Gujarat
20.1VREVarediya (4)XO  03:40-03:40-  2151.5 2321mWRNH 8, Gujarat
21NIUNabipur (3)O  03:58+5203:59+551m--2158.24524mWRNabipur, Gujarat
21.1CVJChavaj (2)X  04:08-04:08-  2165.3 4520mWRBharuch, Gujarat
22BHBharuch Junction (5)XO  04:15+4404:20+505m42170.32919mWRBharuch, Gujarat
23AKVAnkleshwar Junction (4)X  04:39+4604:41+472m22179.66919mWRAnkleshwar, Gujarat
23.1SNJLSanjali (2)  04:46-04:46-  2185.7 6923mWRSanjali, Gujarat
24PAOPanoli (3)X  04:50+1:0404:52+1:132m--2189.93929mWRPanoli, Gujarat
25HATHathuran (2)  04:58-05:00-2m--2193.85232mWRKosamba, Gujarat
26KSBKosamba Junction (3)X  05:05+1:1205:07+1:112m--2198.25230mWRKosamba, Gujarat
27KIMKim (2)XO  05:16+1:1105:18+1:132m--2205.91018mWRNH 8, Gujarat
28KDSDKudsad (2)X  05:34-05:36-2m--2208.77118mWRNH 8, Gujarat
29SYNSayan (3)X  05:42+1:0305:44+1:052m--2215.91321mWRSayan Satellite town, Gujarat
30GTXGothangam (2)O  05:58+5806:00+582m--2218.83719mWRAmroli Sayan Rd, Gujarat
31KSEKosad (2)O  06:06+5906:08+592m--2222.51317mWRSurat, Gujarat
32URNUtran (3)XO  06:23+4306:25+442m--2225.7815mWRSurat, Gujarat
33STSurat (4)XOO  06:55+2007:15+1820m32229.64019mWRSurat 395001, Gujarat
34UDNUdhna Junction (3)X  07:21+3807:23+392m22233.63616mWRUdhna 394210, Gujarat
35BHETBhestan (2)O  07:31+4107:32+421m22238.45713mWRSurat, Gujarat
36SCHSachin (3)O  07:38+4407:40+442m--2244.16611mWRKansad Road Sachin, Gujarat
37MRLMaroli (3)XO  07:46+4707:48+462m--2250.73015mWRMaroli, Gujarat
38NVSNavsari (3)  08:05+3408:06+371m--2259.25114mWRNavsari, Gujarat
38.1GNSTGandhi Smriti (2)  08:10-08:10-  2262.2 5116mWRGandhi Smriti Navsari, Gujarat
38.2HXRHansapore (2)X  08:11-08:11-  2263.8 5115mWRHansapore, Gujarat
39VDHVedchha (3)X  08:16+4408:17+441m--2267.65113mWRNavsari, Gujarat
40ACLAncheli (2)X  08:21-08:23-2m--2271.05720mWRNavsari, Gujarat
41AMLAmalsad (3)  08:27+4508:29+462m--2274.85612mWRAmalsad, Gujarat
42BIMBilimora Junction (4)O  08:35+3908:37+412m--2280.34711mWRBilimora, Gujarat
43JRSJoravasan (2)  08:42-08:44-2m--2284.37615mWRJoravasan, Gujarat
44DGIDungri (3)XO  08:48+5208:50+532m--2289.42120mWRNH 8, Gujarat
45BLValsad (3)X  09:15+3509:20+375m--2298.38015mWRValsad, Gujarat
46ATULAtul (3)  09:25+1:0409:27+1:032m--2305.06022mWRValsad, Gujarat
47PADPardi (3)  09:31+1:0409:33+1:032m--2308.94519mWRValsad, Gujarat
48UVDUdvada (3)XO  09:41+1:0309:43+1:052m--2314.92918mWRUdvada, Gujarat
49BAGDBagwada (2)  09:49-09:51-2m--2317.82722mWRNH8, Gujarat
50VAPIVapi (3)X  10:06+3210:08+342m--2324.54827mWRVapi, Gujarat
51KEBKarambeli (2)XO  10:16-10:18-2m--2331.04829mWRNational Highway 8, Gujarat
52BLDBhilad (3)X  10:24+1:0010:26+1:012m--2335.86933mWRBhilad, Gujarat
53SJNSanjan (3)X  10:36+1:0710:38+1:082m--2347.45422mWRSanjan, Gujarat
54UBRUmbargam Road (3)  10:44+1:0210:46+1:012m32352.73230mWRUmbergaon, Gujarat
54.1BRRDBordi Road (2)XO  10:54-10:54-  2357.0 3217mWRBordi, Maharashtra
55GVDGholvad (4)  11:03+5411:05+552m--2361.93914mWRGholvad, Maharashtra
56DRD•Dahanu Road (5)•  11:22+4911:25+523m--2373.05712mWRDahanu, Maharashtra
57VGNVangaon (3)X  11:38+2911:40+322m--2385.36311mWRDist. Palghar, Maharashtra
58BORBoisar (3)X  11:49+3011:51+302m32394.73817mWRBoisar Tel.no-02525-266626, Maharashtra
58.1UOIUmroli (2)X  11:59-11:59-  2399.6 388mWRBoisar, Maharashtra
59PLGPalghar (3)O  12:09+812:11+82m--2406.05619mWRPalghar, Maharashtra
60KLVKelve Road (3)X  12:20+3012:22+322m--2414.46410mWRDist. Palghar, Maharashtra
61SAHSaphale (2)  12:28+2812:30+272m22420.9588mWRDist. Palghar, Maharashtra
62VTNVaitarna (2)XO  12:38+3212:40+322m22428.6133mWRDist. Palghar, Maharashtra
63VRVirar (8)X  13:20+1413:28+168m42437.2636mWRDist. Palghar, Maharashtra
63.1NSPNallasopara (4)X  13:32-13:32-  2441.4 635mWRNallasopara station Rd, Maharashtra
64BSRVasai Road (7)XO  13:36+813:38+82m52445.6397mWRVasai 401202, Maharashtra
64.1NIGNaigaon (4)X  13:44-13:44-  2449.3 395mWRNaigaon West, Maharashtra
64.2BYRBhayandar (6)  13:51-13:51-  2454.0 396mWRThane, Maharashtra
64.3MIRAMira Road (4)  13:56-13:56-  2457.2 393mWRMira Bhayandar, Maharashtra
64.4DICDahisar (4)X  14:01-14:01-  2460.7 3914mWRMumbai, Maharashtra
65BVIMumbai Borivali (8)X  14:05+1214:13+128m62463.03819mWRMumbai - 400092, Maharashtra
65.1KILEKandivli (4)  14:17-14:17-  2465.7 3814mWRMumbai, Maharashtra
65.2MDDMalad (4)  14:21-14:21-  2467.8 3818mWRMumbai-400064, Maharashtra
65.3GMNGoregaon (5)  14:24-14:24-  2470.2 3815mWRMumbai - 400104, Maharashtra
65.4JOSJogeshwari (4)  14:29-14:29-  2473.4 3814mWRMumbai, Maharashtra
65.5ADHMumbai Andheri (9)  14:33-14:33-  2475.6 3812mWRMumbai, Maharashtra
65.6VLPVille Parle (6)X  14:36-14:36-  2477.5 3811mWRMumbai, Maharashtra
65.7STCSanta Cruz (6)X  14:39-14:39-  2479.5 3810mWRMumbai, Maharashtra
65.8KHARKhar (6)X  14:41-14:41-  2480.9 387mWRMumbai, Maharashtra
65.9BDTSMumbai Bandra Terminus (5)  14:43-14:43-  2481.7 384mWRMumbai 400050, Maharashtra
65.10BABandra (7)  14:44-14:44-  2482.6 386mWRMumbai, Maharashtra
65.11MMMumbai Mahim Junction (6)  14:47-14:47-  2484.3 385mWRMumbai, Maharashtra
65.12MRUMumbai Matunga Road (2)  14:49-14:49-  2485.5 387mWRMumbai, Maharashtra
65.13DDRMumbai Dadar Western (6)  14:51-14:51-  2486.7 386mWRMumbai, Maharashtra
65.14EPRMumbai Elphinstone Road (2)  14:53-14:53-  2488.3 384mWRMumbai, Maharashtra
65.15PLMumbai Lower Parel (3)  14:55-14:55-  2489.8 385mWRMumbai, Maharashtra
65.16MXMumbai Mahalakshmi (2)  14:58-14:58-  2491.3 383mWRMumbai, Maharashtra
66BCTMumbai Central (9)  15:00+10---2492.6-3mWRMumbai 400008, Maharashtra
Scroll to Top
Scroll to Bottom